Regional Weather Roundup
Issued by NWS

Home | Current Version | Previous Version | Graphics & Text | Print | Product List | Glossary On
Versions: 1 2 3 4 5 6 7 8 9 10 11 12 13 14 15 16 17 18 19 20 21 22 23 24 25 26 27 28 29 30 31 32 33 34 35 36 37 38 39 40 41 42 43 44 45 46 47 48 49 50
000
ASUS43 KOAX 180502
RWRNE

WEATHER ROUNDUP FOR NEBRASKA
NATIONAL WEATHER SERVICE OMAHA NE
1200 AM CDT FRI AUG 18 2017

NOTES: SATELLITE DATA IS BEING USED TO AUGMENT CLOUD COVER ABOVE
       12000 FEET.
       "FAIR" INDICATES FEW OR NO CLOUDS BELOW 12,000 FEET WITH NO
       SIGNIFICANT WEATHER AND/OR OBSTRUCTIONS TO VISIBILITY.


NEZ001>004-019>022-054>056-180600-
NEBRASKA PANHANDLE

CITY           SKY/WX    TMP DP  RH WIND       PRES   REMARKS
SCOTTSBLUFF    CLEAR     66  47  50 CALM      30.07R
ALLIANCE       CLOUDY    59  51  75 MISG      30.04R
CHADRON        CLEAR     58  52  80 SW3       30.02S
GORDON         FAIR      58  50  76 W5        30.01R
SIDNEY         CLEAR     63  49  60 N10       30.08S
$$

NEZ057>060-069>072-079>082-180600-
SOUTHWEST NEBRASKA

CITY           SKY/WX    TMP DP  RH WIND       PRES   REMARKS
NORTH PLATTE   CLEAR     67  58  72 N9        30.00R
IMPERIAL       CLEAR     62  54  74 S6        30.00R
LEXINGTON      CLOUDY    69  58  68 SE5       29.93R
MCCOOK         CLOUDY    66  57  72 SW12      29.97R
OGALLALA       CLEAR     64  57  79 CALM      30.00R
$$

NEZ005>010-023>029-035>040-094-180600-
NORTH CENTRAL NEBRASKA

CITY           SKY/WX    TMP DP  RH WIND       PRES   REMARKS
VALENTINE      CLOUDY    66  57  72 S8        29.95R
AINSWORTH      LGT RAIN  63  60  90 E8        29.94F
BROKEN BOW     CLOUDY    72  54  53 N15G36    30.03R
O`NEILL        RAIN      63  62  97 W13       30.01R
ORD            CLOUDY    68  60  75 NW22G36   30.01R SQUALL
THEDFORD       CLOUDY    62  58  87 E3        29.99F
$$

NEZ041-046>049-061>064-073>077-083>087-180600-
SOUTH CENTRAL NEBRASKA

CITY           SKY/WX    TMP DP  RH WIND       PRES   REMARKS
GRAND ISLAND   MOCLDY    70  61  73 S8        29.94R
AURORA         CLOUDY    71  60  69 S7        29.93R
HASTINGS       CLOUDY    71  59  65 S8        29.94F
HEBRON         CLOUDY    70  61  72 S9        29.93F
HOLDREGE       CLOUDY    69  56  63 S7        29.93S
KEARNEY        CLOUDY    71  58  63 S8        29.94R
YORK           PTCLDY    66  63  88 S6        29.94R
$$

NEZ011>018-030>034-042>045-180600-
NORTHEAST NEBRASKA

CITY           SKY/WX    TMP DP  RH WIND       PRES   REMARKS
NORFOLK        CLEAR     65  62  90 SE9       29.91S
ALBION         CLOUDY    68  64  87 CALM      29.92S
BLAIR          HVY RAIN  67  63  86 S3        29.93S
COLUMBUS       CLEAR     64  62  93 E3        29.93R
FREMONT        CLEAR     68  64  86 SE3       29.93R
TEKAMAH        CLEAR     62  61  96 S5        29.91S FOG
WAYNE          CLEAR     64  62  91 CALM      29.91F
$$

NEZ050>053-065>068-078-088>093-180600-
SOUTHEAST NEBRASKA

CITY           SKY/WX    TMP DP  RH WIND       PRES   REMARKS
LINCOLN        CLEAR     68  62  81 S3        29.93S
OMAHA EPPLEY   CLEAR     69  61  75 SE5       29.92S
BEATRICE       CLEAR     67  62  82 CALM      29.94F
FALLS CITY     CLEAR     67  61  81 CALM      29.93F
NEBRASKA CITY  CLEAR     64  63  97 S6        29.94S
PLATTSMOUTH    CLEAR     67  61  80 S3        29.93S
$$

NEZ044-045-051>053-067-180600-
OMAHA AREA

CITY           SKY/WX    TMP DP  RH WIND       PRES   REMARKS
OMAHA EPPLEY   CLEAR     69  61  75 SE5       29.92S
BLAIR          HVY RAIN  67  63  86 S3        29.93S
FREMONT        CLEAR     68  64  86 SE3       29.93R
MILLARD        CLEAR     67  65  93 CALM      29.93S
OFFUTT AFB     CLEAR     60  59  96 CALM      29.92S
PLATTSMOUTH    CLEAR     67  61  80 S3        29.93S
WAHOO          FAIR      64  63  96 CALM      29.93R
$$




USA.gov is the U.S. government's official web portal to all federal, state and local government web resources and services.